Location: Ehingen
(48.2869°N, 9.7112°E)
Time: 05:00:41
(UTC+01:00)

OTV 5 (USA 277) - Visible Passes

Search period start: 19 February 2018 00:00
Search period end: 01 March 2018 00:00
Orbit: 404 x 417 km, 43.0° (Epoch: 07 September)

Date Brightness Start Highest point End Pass type
(mag) Time Alt. Az. Time Alt. Az. Time Alt. Az.
21 Feb ? 05:58:26 10° S 05:59:47 12° SSE 06:01:08 10° SE visible
23 Feb ? 05:52:17 11° SSW 05:54:35 20° SSE 05:57:04 10° ESE visible
24 Feb ? 05:03:42 16° SSE 05:03:42 16° SSE 05:05:47 10° ESE visible
24 Feb ? 06:37:29 10° WSW 06:40:27 31° S 06:43:24 10° ESE visible
25 Feb ? 05:47:48 18° SW 05:49:29 28° S 05:52:21 10° ESE visible
26 Feb ? 04:59:06 23° SSE 04:59:06 23° SSE 05:01:16 10° ESE visible
26 Feb ? 06:32:25 10° WSW 06:35:25 32° S 06:38:24 10° ESE visible
27 Feb ? 05:43:07 23° SW 05:44:27 32° S 05:47:26 10° ESE visible
28 Feb ? 04:54:23 26° SE 04:54:23 26° SE 04:56:26 10° ESE visible
28 Feb ? 06:27:31 10° WSW 06:30:22 27° SSW 06:33:12 10° SE visible
